This is the latest recevied weather packets stored in our database for station/object KD0RII. If no packets are shown the sender has not sent any weather packets the latest 1 day(s).
| Time | Temp. | Humidity | Pressure | Rain* | Wind** | Luminosity | Snow |
|---|---|---|---|---|---|---|---|
| 1778055624 | 6.67° C | 89% | 1016.3 hPa | 0 mm | - | 0 W/m² | - |
| 1778055020 | 6.67° C | 91% | 1017.1 hPa | 0 mm | - | 0 W/m² | - |
| 1778054112 | 6.67° C | 91% | 1017.3 hPa | 1.78 mm | - | 0 W/m² | - |
| 1778053506 | 6.67° C | 91% | 1017.2 hPa | 1.78 mm | - | 0 W/m² | - |
| 1778053203 | 6.67° C | 91% | 1017.3 hPa | 0 mm | - | 0 W/m² | - |
| 1778052295 | 7.22° C | 91% | 1017.1 hPa | 0 mm | - | 0 W/m² | - |
| 1778051993 | 6.67° C | 90% | 1017.3 hPa | 0 mm | - | 0 W/m² | - |
| 1778051387 | 6.67° C | 90% | 1016.9 hPa | 1.27 mm | - | 0 W/m² | - |
| 1778050781 | 6.67° C | 90% | 1016.9 hPa | 0 mm | - | 0 W/m² | - |
| 1778050479 | 6.67° C | 90% | 1017 hPa | 0 mm | - | 0 W/m² | - |
| 1778050175 | 6.67° C | 90% | 1016.9 hPa | 0 mm | - | 0 W/m² | - |
| 1778049266 | 6.67° C | 89% | 1016.9 hPa | 0 mm | - | 0 W/m² | - |
| 1778048662 | 6.67° C | 89% | 1017.3 hPa | 0 mm | - | 0 W/m² | - |
| 1778048054 | 6.67° C | 88% | 1016.7 hPa | 1.78 mm | - | 0 W/m² | - |
| 1778047450 | 7.22° C | 88% | 1016.9 hPa | 4.83 mm | - | 0 W/m² | - |
| 1778047147 | 7.22° C | 87% | 1016.7 hPa | 4.83 mm | - | 0 W/m² | - |
| 1778046844 | 7.22° C | 86% | 1016.7 hPa | 4.83 mm | - | 0 W/m² | - |
| 1778045632 | 8.33° C | 80% | 1017 hPa | 1.78 mm | - | 0 W/m² | - |
| 1778045330 | 8.33° C | 79% | 1017 hPa | 1.78 mm | - | 0 W/m² | - |
| 1778044726 | 8.89° C | 77% | 1017.1 hPa | 0 mm | - | 0 W/m² | - |
| 1778044422 | 8.89° C | 76% | 1016.7 hPa | 0 mm | - | 0 W/m² | - |
| 1778043210 | 8.89° C | 75% | 1016.1 hPa | 0 mm | - | 0 W/m² | - |
| 1778042907 | 8.89° C | 78% | 1016.3 hPa | 0 mm | - | 0 W/m² | - |
| 1778042605 | 8.89° C | 79% | 1016.3 hPa | 0 mm | - | 0 W/m² | - |
| 1778042302 | 8.89° C | 80% | 1016.3 hPa | 0 mm | - | 0 W/m² | - |
* Rain latest hour (hover to see other rain measurements)
** Current wind speed in m/s (hover to see current wind gust speed)